Hourly Data Report for October 27, 2013

All times are specified in Local Standard Time (LST). Add 1 hour to adjust for Daylight Saving Time where and when it is observed.

ARVIAT A
NUNAVUT

61°05'38.000" N
94°04'18.000" W
10.40 m
2300427
71174
YEK

Download Data

Hourly Data (October 2013)
Hourly Data Report for October 27, 2013
Temp Definition
°C
Dew Point Temp Definition
°C
Rel Hum Definition
%
Wind Dir Definition
10's deg

Wind Spd Definition
km/h
Visibility Definition
km
Stn Press Definition
kPa
Hmdx Definition


Wind Chill Definition


Weather Definition


TIME
00:00 Legend Double Dagger -8.2 -9.9 88 35 41 3.6 101.32   -18 LegendNANA
01:00 Legend Double Dagger -8.3 -9.8 89 34 37 9.7 101.37   -18 LegendNANA
02:00 Legend Double Dagger -10.1 -11.4 90 33 35 16.1 101.41   -20 LegendNANA
03:00 Legend Double Dagger -8.7 -9.6 93 33 35 16.1 101.45   -18 LegendNANA
04:00 Legend Double Dagger -8.3 -9.8 89 34 39 16.1 101.53   -18 LegendNANA
05:00 Legend Double Dagger -8.1 -9.0 93 34 42 3.6 101.57   -18 LegendNANA
06:00 Legend Double Dagger -8.3 -9.2 93 34 52 2.0 101.61   -20 LegendNANA
07:00 Legend Double Dagger -8.5 -9.8 91 34 48 2.8 101.74   -20 LegendNANA
08:00 Legend Double Dagger -8.9 -10.3 90 34 48 2.4 101.81   -20 LegendNANA
09:00 Legend Double Dagger -9.6 -11.2 88 34 52 2.0 101.92   -21 LegendNANA
10:00 Legend Double Dagger -11.2 -12.9 88 34 42 6.4 102.01   -23 LegendNANA
11:00 Legend Double Dagger -11.6 -13.5 86 33 33 16.1 102.11   -22 LegendNANA
12:00 Legend Double Dagger -11.7 -13.6 86 33 46 6.4 102.13   -24 LegendNANA
13:00 Legend Double Dagger -11.3 -13.2 86 32 41 8.1 102.22   -23 LegendNANA
14:00 Legend Double Dagger -11.3 -13.1 87 32 48 6.4 102.21   -23 LegendNANA
15:00 Legend Double Dagger -11.0 -12.8 87 32 45 8.1 102.23   -23 LegendNANA
16:00 Legend Double Dagger -11.3 -13.1 87 31 35 12.9 102.27   -22 LegendNANA
17:00 Legend Double Dagger -11.3 -12.9 88 31 37 16.1 102.28   -22 LegendNANA
18:00 Legend Double Dagger -11.3 -13.1 87 31 42 16.1 102.30   -23 LegendNANA
19:00 Legend Double Dagger -10.9 -12.7 87 32 39 16.1 102.32   -22 LegendNANA
20:00 Legend Double Dagger -11.4 -13.0 88 31 35 16.1 102.31   -22 LegendNANA
21:00 Legend Double Dagger -11.5 -13.1 88 31 33 16.1 102.28   -22 LegendNANA
22:00 Legend Double Dagger -11.4 -13.2 87 31 33 16.1 102.26   -22 LegendNANA
23:00 Legend Double Dagger -10.6 -12.4 87 31 33 14.5 102.24   -21 LegendNANA

Notes on Data Quality.

Legend

  • E = Estimated
  • M = Missing
  • NA = Not Available
  • ‡ = Partner data that is not subject to review by the National Climate Archives
Date modified: